Theta_e
344 346 348 348 348 349 349 349 349 348 348 348 349 348 347 347 347 346 346 344 343 341 341 342 340 341 343 344 343 343 346 346 345 344 344 343 342 341 340 340 340 340 340 341 340 338 336 334 333 331 329 331
341 343 346 345 346 346 347 347 347 346 346 347 347 346 345 345 346 346 345 344 342 340 339 340 339 340 341 343 343 344 346 345 345 344 343 343 341 341 340 339 339 339 340 341 338 336 334 332 331 330 329 329
339 340 341 341 342 343 344 344 344 343 343 343 343 343 343 344 344 344 343 342 341 339 338 339 339 339 339 344 344 345 346 345 345 344 343 343 341 340 339 339 339 340 340 339 336 334 332 330 329 328 328 331
340 337 337 337 339 340 341 341 341 339 339 340 339 339 340 341 342 342 341 341 340 337 336 338 337 338 338 342 344 344 345 345 344 343 343 342 341 340 339 339 340 341 340 337 335 332 330 329 328 325 327 335
341 339 336 336 336 336 337 338 338 336 334 335 334 334 335 337 340 340 339 339 337 336 335 333 333 337 336 339 342 343 343 343 343 343 343 341 340 340 340 339 340 339 337 335 333 331 328 327 324 325 325 338
341 338 336 338 338 338 336 335 335 337 339 341 340 331 337 340 340 340 339 338 339 335 335 332 330 333 335 337 339 341 342 342 342 343 342 341 340 340 339 337 336 335 334 333 331 328 326 326 325 325 325 335
334 335 335 337 337 338 335 338 339 340 340 340 340 339 340 340 340 339 338 337 337 336 330 333 328 331 333 335 337 339 340 340 340 341 341 341 340 339 337 335 333 331 328 327 329 327 325 325 325 324 324 333
328 328 329 332 333 334 335 336 337 340 340 341 341 341 340 340 340 339 337 337 337 335 334 332 327 328 331 333 334 336 338 338 338 339 339 338 338 337 335 332 332 331 328 327 326 326 325 325 324 323 323 335
321 324 324 326 330 330 331 333 335 337 339 341 341 341 340 339 339 339 338 335 335 335 334 333 330 329 332 334 335 332 336 335 336 337 336 335 334 333 333 330 328 330 328 326 326 326 325 324 324 323 325 334
317 321 319 322 325 327 329 331 332 333 336 339 340 340 339 339 338 338 337 335 333 334 333 332 332 330 330 334 335 334 335 334 335 335 334 333 333 332 332 329 327 329 329 327 326 325 324 323 323 324 330 334
316 315 316 317 319 320 321 326 330 330 332 337 340 340 339 338 338 337 337 335 333 333 333 331 332 331 330 332 334 334 334 333 335 334 333 332 332 331 330 329 326 327 329 328 327 326 325 323 324 327 331 334
313 313 316 316 319 319 318 318 325 328 330 333 337 340 340 338 338 337 336 335 333 333 333 332 332 333 331 330 332 334 335 332 334 334 333 332 331 330 328 328 326 327 328 328 328 326 325 324 324 327 331 334
312 313 315 313 314 316 321 317 318 319 323 328 331 338 339 338 338 337 336 335 334 334 333 333 332 332 332 331 330 333 334 332 332 333 332 331 331 330 328 327 325 327 328 328 328 326 325 325 325 327 332 333
311 312 312 314 314 316 318 318 319 317 317 318 324 330 337 338 338 337 336 336 335 334 334 333 333 332 331 330 329 330 332 332 331 332 331 331 330 329 328 326 324 327 328 328 328 326 326 325 328 329 332 332
310 311 310 313 314 317 317 315 318 319 319 319 320 323 329 336 338 338 337 336 336 335 335 334 333 332 331 329 328 329 331 332 331 332 331 330 330 329 328 325 323 326 328 328 328 327 326 326 329 330 332 333
310 311 311 312 314 314 315 316 316 316 317 319 321 323 323 328 333 336 337 337 336 335 335 335 334 334 332 330 329 329 330 331 330 330 331 330 329 329 328 325 323 326 327 328 328 328 328 329 330 329 331 332
309 311 312 312 313 314 317 316 317 315 316 317 317 320 325 327 328 328 332 335 337 335 335 334 334 334 334 332 330 329 329 330 329 329 330 329 329 328 327 324 322 325 327 327 327 328 328 329 330 330 331 331
308 310 311 312 312 313 315 313 314 314 314 314 315 317 321 325 327 326 327 327 333 336 336 335 333 332 332 333 332 330 329 330 329 328 329 329 329 325 325 323 322 323 324 326 326 327 328 329 331 330 329 329
308 309 310 310 311 312 312 314 314 313 313 312 313 313 316 321 323 324 325 327 328 333 334 334 334 333 333 334 333 332 329 329 329 328 328 328 328 327 326 324 322 323 324 324 325 327 328 327 330 330 328 328
308 309 308 308 313 311 311 312 315 312 312 313 312 312 312 316 319 321 323 324 325 326 330 332 331 331 330 331 331 331 330 329 328 327 327 328 328 326 324 323 320 322 322 323 324 325 327 326 329 330 328 327
307 307 307 308 310 311 311 311 311 311 312 312 313 312 312 314 317 318 319 320 322 322 323 325 326 327 331 330 330 330 329 328 327 327 327 327 327 327 325 322 321 322 322 321 322 324 325 327 327 328 327 326
307 307 307 308 311 312 311 312 311 310 310 310 310 311 311 312 314 315 316 316 318 320 321 322 325 326 328 329 330 330 330 329 327 327 327 326 327 327 325 322 321 321 322 321 317 318 321 322 326 326 326 325
307 307 307 309 312 312 312 313 312 309 308 309 309 309 310 312 314 314 315 316 315 316 317 320 322 322 322 325 325 327 329 329 328 327 327 326 326 326 325 323 322 321 319 315 311 308 309 311 315 321 321 322
305 306 306 308 310 311 312 312 311 311 308 309 308 309 310 312 313 313 315 315 315 314 314 315 321 321 320 320 321 322 323 325 326 326 326 326 325 324 323 322 321 318 314 310 307 305 305 306 308 312 315 319
305 305 306 308 310 310 311 311 310 311 310 309 308 309 311 311 313 313 314 314 313 314 314 314 313 321 321 320 319 318 319 321 323 325 326 326 323 323 322 321 319 317 313 308 304 304 304 305 306 306 308 310
305 306 308 309 310 310 310 310 309 308 309 309 310 311 312 312 312 313 313 312 313 314 313 314 313 315 316 319 320 320 318 318 318 322 324 324 323 322 321 319 318 314 314 311 307 305 301 303 305 305 304 304
306 308 309 309 308 309 308 310 310 308 309 310 309 310 312 314 314 314 313 313 313 314 313 313 312 313 312 313 316 315 316 315 316 317 320 322 322 319 319 315 315 314 318 312 312 309 305 302 304 304 303 303
307 308 308 308 308 309 307 307 309 309 309 310 310 310 313 315 315 315 314 313 312 313 312 311 310 309 309 309 311 314 315 315 315 317 317 319 319 320 317 313 312 314 318 314 309 304 310 306 309 301 300 300
307 307 306 307 307 308 307 309 307 307 307 310 310 312 313 315 315 315 314 314 313 311 311 311 311 310 310 309 310 313 314 314 315 317 319 321 321 319 318 311 311 312 316 314 315 313 307 303 306 307 303 300
307 307 306 305 305 305 305 305 306 307 308 308 310 311 312 313 314 314 313 313 313 312 311 311 312 311 311 310 310 311 312 314 313 315 318 320 321 320 319 314 310 310 313 314 314 316 316 315 310 309 303 305
307 306 306 306 305 306 306 305 306 306 306 307 307 310 309 311 312 313 313 313 313 313 312 312 311 311 311 311 311 311 310 312 313 313 315 318 320 321 319 314 310 310 311 313 314 315 315 313 313 311 304 306
Wind_Speed
10 12 12 11 12 12 13 13 13 13 14 13 14 14 14 13 13 14 14 12 11 11 9 8 10 9 8 9 11 11 13 13 13 14 15 14 14 14 13 12 12 12 12 11 10 7 5 6 5 3 4 3
8 9 11 11 11 11 11 11 12 13 13 13 13 13 13 13 13 12 13 13 12 11 9 8 11 10 9 9 10 10 14 14 15 15 15 15 14 14 14 13 11 11 10 10 9 7 5 5 5 2 4 2
6 9 9 10 10 10 10 10 11 12 12 12 12 13 13 13 14 12 12 12 12 12 10 9 10 11 10 10 10 10 14 15 16 16 15 14 14 14 13 12 11 10 8 9 9 9 7 5 6 1 3 3
6 8 11 9 10 12 11 10 10 10 11 11 11 12 13 13 12 11 10 12 10 12 11 10 8 11 11 12 11 12 13 14 15 16 15 14 15 14 13 12 11 9 9 9 9 9 8 7 4 1 1 5
8 9 12 10 10 11 11 11 11 9 9 9 10 11 11 11 9 7 7 8 7 11 9 9 10 11 13 13 12 13 12 14 13 14 15 16 16 14 12 10 10 10 10 10 9 9 9 7 3 1 1 6
7 7 10 8 7 8 9 9 9 8 7 8 5 9 9 8 7 7 6 7 8 7 8 8 10 11 13 13 13 13 13 14 14 15 16 16 16 15 12 12 7 6 9 10 10 9 9 6 4 3 3 6
6 7 6 7 7 6 9 8 9 8 9 6 6 6 7 7 7 7 7 7 8 7 10 9 10 11 12 13 13 14 13 12 15 15 15 16 14 13 14 9 6 5 5 5 8 8 6 5 5 4 4 6
7 5 5 6 6 6 6 6 7 8 8 9 9 8 8 8 7 8 6 9 13 11 8 8 11 11 12 12 13 14 10 11 14 16 15 14 13 10 7 5 6 6 5 5 5 4 5 5 5 5 5 7
5 6 6 6 6 6 6 6 6 6 7 8 10 10 8 8 8 8 7 7 7 9 8 7 6 6 6 6 7 11 6 6 8 10 8 8 8 6 7 6 6 6 6 6 5 5 5 5 4 5 5 7
6 7 7 7 7 6 6 6 6 6 6 7 8 9 9 9 8 8 8 8 7 9 8 8 7 7 6 7 7 8 7 6 7 7 7 7 7 6 6 6 6 7 8 7 6 6 5 6 5 6 6 8
5 6 6 7 7 6 7 7 7 7 7 7 8 9 9 9 9 8 8 8 6 9 8 8 8 8 8 8 8 8 8 8 7 7 7 7 8 7 7 6 6 6 8 8 8 7 6 6 6 6 7 7
6 5 5 5 6 7 7 6 7 7 7 7 8 10 9 10 9 9 9 9 8 7 8 9 8 9 9 8 8 7 8 8 8 8 8 8 8 8 7 8 8 6 8 9 8 7 7 6 6 5 7 7
4 4 5 4 4 6 6 7 7 6 6 7 6 8 9 9 9 9 9 9 9 7 9 9 9 9 10 10 9 8 9 9 9 9 9 8 8 8 7 8 8 6 8 7 8 8 7 7 5 5 7 7
5 4 5 5 4 5 4 5 6 6 6 5 5 6 8 10 9 9 9 10 9 9 9 9 9 9 9 10 10 10 11 10 9 10 9 9 9 10 9 8 8 6 7 7 8 8 7 8 6 5 7 8
6 5 4 5 4 4 5 4 4 4 6 6 5 5 4 8 10 8 8 9 9 9 9 8 9 9 9 9 10 10 10 10 10 10 10 10 10 10 9 8 7 7 8 6 7 8 8 8 6 6 7 8
6 7 5 4 5 5 5 5 5 4 4 4 5 5 4 4 6 8 7 9 9 9 9 8 9 8 8 9 9 10 10 11 11 10 11 10 9 9 8 7 6 7 7 7 6 6 7 7 7 7 7 7
5 6 5 5 5 5 5 5 5 6 6 4 4 4 4 5 5 4 6 6 7 9 9 8 9 8 8 9 10 10 11 12 10 8 9 9 9 9 8 7 6 6 6 7 7 6 5 6 7 8 8 8
6 5 5 5 5 5 6 5 5 6 5 4 4 4 3 4 4 4 4 4 5 5 6 9 9 9 7 6 8 9 8 9 9 8 9 11 10 10 11 10 10 9 8 7 6 6 6 6 7 8 8 8
6 5 6 6 6 5 4 5 6 5 4 4 4 3 3 3 3 3 3 5 5 6 7 7 8 10 10 9 7 8 8 9 10 11 11 11 12 12 11 10 10 11 10 8 7 6 7 6 7 8 8 9
7 6 6 6 6 6 5 5 6 5 6 5 4 4 3 4 4 3 3 3 3 5 7 7 6 6 4 4 5 6 6 6 9 10 9 10 11 10 11 8 5 6 7 5 5 4 5 5 7 7 8 9
5 6 5 6 6 5 5 6 6 5 6 6 5 5 5 4 5 4 4 4 3 3 3 5 4 3 6 8 7 5 4 3 3 5 5 7 8 8 8 8 10 10 9 6 4 6 5 5 7 7 8 9
6 6 5 5 5 5 6 5 5 5 5 5 5 5 5 4 5 5 5 4 4 3 3 4 5 5 5 5 7 9 8 6 3 3 6 8 7 9 9 9 9 9 9 8 7 3 3 4 6 6 8 8
5 5 5 4 5 5 5 5 6 5 5 5 5 6 5 5 6 7 6 6 5 4 5 4 5 6 4 5 5 4 5 8 9 6 5 8 8 9 9 11 10 7 7 9 8 7 6 6 0 6 6 7
6 6 7 7 5 5 6 4 5 5 5 5 5 5 5 5 6 5 6 6 6 6 5 4 6 6 5 6 6 6 6 5 5 9 9 8 8 10 8 7 7 9 10 8 9 7 6 5 6 2 4 5
8 8 7 7 9 9 6 6 5 6 5 4 5 5 4 5 6 5 5 5 5 6 6 5 4 6 6 6 6 6 6 6 6 5 5 6 6 11 12 9 9 12 13 13 7 5 6 6 6 6 5 3
9 9 9 9 9 7 7 7 7 7 7 6 4 5 5 5 4 5 5 5 6 6 6 6 6 4 5 6 6 6 5 5 5 6 7 6 7 5 10 10 13 14 16 11 14 11 4 4 4 6 6 6
10 8 7 8 6 8 5 5 6 5 5 6 6 6 6 6 5 5 5 5 5 5 4 5 5 5 4 4 5 5 5 4 5 4 6 8 8 6 4 2 4 15 19 15 11 9 10 6 6 1 2 2
8 8 6 6 6 7 7 6 6 6 6 7 8 8 7 6 6 5 5 5 5 5 5 5 5 4 4 4 4 5 5 5 5 5 5 4 6 6 7 4 5 8 11 10 16 9 12 8 11 6 5 4
8 8 7 7 5 7 5 3 8 8 8 9 8 7 7 7 6 6 6 6 6 6 6 5 6 5 5 5 5 5 6 7 8 7 7 8 7 8 9 6 5 10 10 13 18 17 7 3 4 11 7 7
10 10 10 9 9 9 9 7 8 10 9 7 8 8 5 4 6 6 6 6 6 7 6 7 7 6 6 6 6 6 6 6 6 7 8 10 10 10 10 9 8 8 10 13 17 12 17 21 18 18 11 14
10 10 9 11 11 8 9 9 6 4 5 6 5 5 5 6 6 6 7 6 7 7 7 7 7 7 6 6 6 6 6 6 8 8 8 8 9 10 9 9 11 13 11 6 11 10 5 6 4 14 18 14
Wind_Direction
181 189 193 191 192 194 196 195 193 193 191 190 189 187 186 187 183 181 185 184 185 193 193 193 178 193 199 173 171 170 148 151 152 151 152 153 157 152 155 164 162 162 159 149 142 148 180 207 210 164 72 47
165 180 188 190 190 193 199 201 197 197 196 193 191 190 188 187 187 185 188 187 186 192 188 192 182 190 191 180 174 171 151 156 159 159 157 158 162 160 158 166 163 160 162 142 141 148 173 227 239 146 95 92
164 165 173 180 186 188 196 202 204 199 199 197 192 190 190 189 189 190 188 189 186 191 187 189 193 187 187 176 177 171 155 162 165 163 161 159 164 163 164 169 165 162 155 141 148 155 170 206 245 43 39 69
162 175 169 180 183 184 190 196 200 198 201 199 195 191 189 189 191 192 191 189 187 191 189 188 192 189 183 177 179 182 161 166 168 166 162 161 166 169 170 169 166 160 152 149 157 163 172 190 226 92 119 96
166 172 173 178 176 181 185 190 196 201 197 199 201 193 188 184 185 188 190 190 189 192 191 188 188 186 183 179 180 186 175 169 170 168 167 164 168 165 165 165 159 152 151 156 164 170 172 177 195 198 145 119
160 164 171 178 175 180 185 189 187 183 191 200 196 194 185 187 189 187 191 187 192 190 190 188 188 185 181 182 180 185 187 170 173 171 171 169 167 162 158 152 146 151 155 161 168 173 169 168 184 202 183 130
126 152 169 172 175 185 186 187 186 190 192 194 194 181 185 192 194 195 191 190 188 190 190 190 184 185 184 181 181 185 188 173 173 173 174 173 167 156 151 149 148 145 146 160 172 170 170 183 182 192 192 136
136 154 169 173 170 178 183 185 188 191 187 190 193 191 190 192 194 196 200 196 185 189 185 192 177 183 188 182 180 181 184 177 174 173 175 175 161 150 158 163 154 150 153 154 169 184 191 194 190 196 186 128
169 158 172 186 174 176 176 184 184 196 187 189 189 190 191 195 193 191 201 197 185 188 186 182 169 177 185 183 185 180 178 175 175 170 171 171 153 162 169 179 172 155 157 158 175 188 196 202 207 205 174 137
186 168 176 178 173 175 175 181 184 192 190 189 190 191 192 192 196 195 196 201 186 187 183 184 178 176 179 185 186 180 181 179 174 174 170 167 167 172 181 191 193 165 160 162 176 188 194 199 213 213 150 141
181 180 179 172 171 172 184 178 181 188 196 189 188 192 191 191 195 197 198 201 197 185 183 188 184 182 184 185 188 182 186 183 178 179 174 173 179 179 184 198 206 175 165 162 172 186 190 198 213 200 141 141
184 184 180 185 168 170 182 180 185 187 193 196 188 189 192 194 194 194 197 201 202 191 187 189 188 186 187 189 190 182 191 187 178 185 182 180 185 191 190 194 206 185 172 165 171 181 184 201 212 189 133 139
194 180 173 194 179 178 180 182 189 196 198 197 194 183 186 189 195 198 199 200 201 195 195 191 189 186 190 192 189 183 194 193 184 187 187 183 186 195 203 197 206 187 177 169 174 179 177 196 209 176 130 134
191 196 178 189 191 182 182 191 185 189 204 212 202 191 185 186 194 196 197 201 200 197 200 196 193 191 189 191 191 188 193 196 190 187 190 185 186 191 201 203 203 186 179 178 176 177 175 189 197 149 137 135
187 195 189 187 185 175 180 203 213 203 192 196 205 214 190 181 190 192 196 199 201 204 201 202 199 197 191 193 193 193 194 197 195 189 193 191 187 189 196 201 188 183 181 186 182 180 174 183 169 130 134 136
177 186 193 185 178 189 188 181 192 216 221 202 192 195 210 195 180 188 190 194 201 205 201 202 204 201 196 196 196 198 197 197 199 192 193 190 186 190 193 199 188 184 176 186 194 188 176 165 157 131 133 141
184 179 183 183 182 187 194 182 181 198 210 213 211 200 189 192 192 175 178 180 195 204 205 203 202 208 208 202 198 196 199 199 202 192 185 189 187 190 193 192 189 182 178 187 192 188 181 156 143 135 140 152
181 188 183 182 184 188 185 188 182 196 202 203 209 195 186 171 176 182 183 174 183 196 206 208 208 215 228 238 208 199 197 199 202 206 191 191 189 192 192 192 183 176 181 193 188 178 169 149 148 142 148 157
182 183 185 183 185 192 187 187 181 188 198 197 203 186 187 170 173 180 181 184 180 190 196 208 209 205 203 202 212 206 206 199 201 206 201 192 193 193 197 192 184 181 179 178 188 172 162 155 148 146 154 156
184 183 187 187 188 186 193 185 181 186 192 193 192 190 187 179 177 189 208 206 180 167 188 200 206 213 205 217 211 210 204 214 214 212 204 198 193 191 196 184 171 173 176 166 165 156 155 143 148 154 156 160
183 187 189 192 190 192 189 188 184 194 186 184 182 184 191 178 173 181 190 208 201 187 162 140 155 180 201 220 239 239 224 212 199 198 202 205 202 188 183 171 177 170 163 149 140 145 146 157 154 164 162 163
183 188 190 194 194 190 190 191 187 195 186 189 182 178 182 178 173 176 189 201 204 188 184 164 165 177 185 188 204 220 220 222 195 205 199 199 199 187 180 181 183 179 162 138 103 64 117 145 166 165 165 162
180 180 192 196 193 192 193 186 190 196 193 193 183 181 188 183 178 182 186 192 195 191 191 186 188 187 191 179 180 186 208 210 215 214 206 206 198 195 190 180 188 167 122 111 97 73 26 16 0 145 149 160
177 177 188 192 193 194 194 189 189 207 197 190 190 197 189 186 182 177 179 181 185 190 196 192 183 189 188 188 183 190 193 204 208 209 211 208 199 191 190 180 142 128 122 96 86 85 69 48 356 44 130 158
181 185 187 193 195 197 186 189 186 198 205 197 195 198 196 186 182 176 173 180 181 189 195 199 192 179 187 178 181 189 203 204 202 196 218 224 206 204 193 184 157 153 138 125 93 75 69 56 30 13 28 60
188 189 191 187 190 184 182 182 187 194 194 202 206 198 195 193 184 178 177 180 178 185 188 195 198 175 174 168 172 184 190 194 195 196 197 203 230 225 209 195 172 160 141 159 160 148 134 61 53 33 38 33
190 187 185 180 182 179 179 184 184 182 186 187 201 207 197 188 183 177 183 179 173 174 180 181 180 195 185 175 164 153 167 174 193 196 204 201 207 216 213 195 221 175 172 168 160 137 118 153 114 284 24 30
184 180 176 175 171 175 169 178 179 184 192 193 193 204 195 187 178 178 183 181 180 183 187 188 192 194 187 195 168 167 171 176 191 188 203 210 221 191 207 180 202 240 186 152 137 160 185 167 159 166 227 156
174 166 171 174 170 163 178 163 179 181 195 191 189 183 182 188 174 181 186 189 191 189 193 190 192 191 195 195 201 181 185 191 195 195 195 199 205 199 201 186 213 208 214 178 181 156 123 81 206 198 151 135
173 176 175 171 175 175 179 182 174 180 175 173 172 180 174 173 180 186 190 191 194 196 192 197 195 192 192 200 203 198 196 196 189 192 198 200 202 205 201 187 173 214 243 201 196 199 182 178 181 179 167 158
174 175 182 183 185 180 181 181 195 170 172 169 181 169 177 190 192 193 193 199 194 196 196 193 193 193 196 202 205 209 206 204 204 202 200 196 203 205 194 177 192 194 205 230 226 222 256 339 346 142 139 182